Location: Grange Verzio
(44.5000°N, 6.9833°E)
Time: 06:52:26
(UTC+00:00)

CZ-2C R/B - Pass Details

Date: 01 February 2023
Orbit: 575 x 35544 km, 87.3° (Epoch: 20 March)

Event Time Altitude Azimuth Distance (km) Brightness Sun altitude
Rises 19:25:57 0° 359° (N) 3,023 6.2 -29.6°
Reaches altitude 10° 19:27:22 10° 1° (N) 2,334 5.5 -29.9°
Enters shadow 19:27:28 11° 1° (N) 2,289 5.5 -29.9°
Exits shadow 19:28:53 27° 4° (N) 1,701 4.7 -30.1°
Maximum altitude 19:31:42 81° 89° (E) 1,343 3.9 -30.6°
Drops below altitude 10° 19:48:33 10° 179° (S) 8,421 8.2 -33.6°
Sets 20:00:11 0° 181° (S) 12,770 9.1 -35.6°
